Wetbulb
34.57 35.24 35.02 33.51 32.71 32.99 30.07 29.74 28.53 27.66 27.40 26.59 26.50 25.26 24.46 23.83 23.47 22.44 22.13 22.12 21.71 21.79 22.27 22.34 22.25 22.80 21.64 21.65 22.64 22.59 21.28 20.92 16.72 19.56 22.45 23.07 22.48 22.23 23.12 23.85 24.34 23.85 24.14
35.33 34.05 33.49 32.13 31.07 31.41 29.45 28.81 27.57 27.24 26.80 26.34 25.50 24.79 23.96 23.27 22.46 22.03 21.06 21.62 20.43 20.36 20.81 20.78 20.78 22.08 20.27 20.94 20.88 19.96 19.92 20.23 18.18 15.40 19.09 19.73 20.30 21.85 22.00 21.64 22.85 24.20 23.77
33.25 32.01 30.70 29.51 29.66 30.35 29.76 28.57 27.62 26.66 25.85 25.22 24.75 23.84 22.90 22.35 21.55 21.37 20.94 20.28 19.54 19.45 19.87 19.80 19.22 19.36 19.13 19.43 18.87 18.55 19.02 20.03 19.00 17.07 16.68 19.82 20.19 21.15 20.52 21.52 21.87 22.74 24.20
32.16 31.44 30.90 30.48 30.39 30.38 29.54 26.96 26.84 25.96 24.45 24.23 23.83 23.10 22.17 21.25 21.06 21.01 20.64 19.19 18.62 18.63 19.40 19.33 19.35 19.34 19.21 19.26 19.60 19.78 19.71 18.65 18.69 17.59 17.04 17.57 19.11 21.28 21.45 19.78 19.89 22.29 21.92
32.48 31.53 31.70 31.28 30.39 29.56 26.91 25.49 25.31 24.64 24.29 23.94 22.11 21.25 20.79 20.51 20.59 19.98 19.92 18.76 18.36 18.39 19.68 19.91 20.60 20.88 22.35 22.50 21.04 20.45 20.27 18.87 18.54 18.20 17.77 18.30 18.51 18.85 19.11 20.99 19.22 19.63 20.42
32.41 31.40 31.71 29.92 28.40 27.27 25.69 24.89 23.91 23.69 22.76 21.86 21.18 20.37 19.03 20.39 25.09 25.59 21.27 18.98 19.27 18.99 19.61 20.58 21.37 20.75 21.13 23.32 24.29 25.09 24.47 20.98 19.64 18.96 19.25 18.64 18.23 19.35 21.11 20.34 19.03 17.11 14.40
31.79 31.59 29.74 28.07 26.77 24.95 24.41 23.92 22.84 21.94 21.58 21.22 19.96 19.48 18.82 19.16 26.52 26.99 24.83 20.51 20.13 20.61 20.84 20.29 20.18 21.11 20.46 20.30 21.74 23.51 24.31 24.80 24.96 22.10 19.45 19.39 18.63 19.65 20.15 18.69 18.29 17.72 16.95
30.87 29.89 27.63 25.82 24.84 23.54 22.60 22.17 22.05 21.11 20.32 19.82 18.93 18.90 19.12 19.57 26.81 27.36 26.66 22.10 21.44 21.13 20.30 20.42 19.39 19.33 20.24 20.66 20.96 20.06 20.59 21.36 22.20 22.72 21.69 21.31 22.03 22.75 22.07 22.31 21.77 21.98 22.08
27.53 27.95 25.83 25.38 23.39 21.37 21.07 20.95 20.88 20.21 19.64 18.87 19.89 19.26 19.21 19.05 26.39 27.14 25.56 21.56 20.69 20.49 20.36 20.47 19.94 19.60 21.67 23.64 21.18 18.98 20.11 21.42 23.78 24.83 24.58 25.02 25.97 25.85 23.55 19.33 14.96 13.39 12.06
24.67 24.32 22.66 23.83 22.86 21.48 21.72 20.81 20.87 20.35 19.48 19.61 19.12 18.85 17.82 15.56 25.77 26.25 25.02 19.48 18.64 18.52 19.49 20.22 22.29 20.85 22.55 23.57 20.92 19.89 16.79 18.15 17.72 17.97 20.44 18.33 18.94 17.03 20.15 18.07 15.42 12.17 13.06
21.32 20.71 21.03 22.13 22.41 21.91 21.38 20.49 19.30 19.32 18.70 18.16 17.55 17.13 16.18 15.79 20.84 25.73 25.34 19.25 17.26 17.36 17.96 18.47 19.01 20.95 21.81 23.84 23.85 19.69 17.20 19.96 19.55 15.02 12.41 13.02 14.33 14.83 15.63 17.01 17.62 15.84 13.62
19.42 19.20 19.78 19.51 20.59 20.49 19.19 18.96 18.12 17.43 16.67 15.91 15.95 14.88 15.53 15.77 18.10 24.18 25.55 23.81 22.41 16.34 16.79 17.58 17.61 19.47 22.12 21.62 20.48 20.18 21.36 20.34 11.52 9.58 9.52 10.21 11.54 12.84 14.79 16.18 17.17 17.44 17.69
17.24 19.94 19.52 19.75 19.52 18.93 17.24 17.45 16.90 17.31 16.67 15.04 14.68 13.74 13.52 15.14 16.12 23.42 25.04 24.91 24.33 18.34 17.56 17.60 19.99 18.19 17.66 16.25 16.62 18.52 16.38 11.60 9.55 8.12 8.39 9.96 12.73 14.51 15.52 14.57 16.67 17.33 17.01
21.07 20.35 19.46 19.06 18.24 18.19 17.76 17.61 16.00 14.91 15.02 14.39 14.26 12.99 13.37 14.56 15.32 18.76 18.95 20.03 21.89 19.08 17.42 12.23 12.39 14.00 13.92 14.10 11.70 12.64 11.72 11.29 10.05 8.95 9.48 11.66 12.99 12.68 11.96 14.60 13.72 14.35 13.62
21.25 19.62 18.07 18.98 17.32 17.03 17.30 16.78 17.06 17.13 17.70 15.04 15.12 14.93 14.00 13.14 14.64 17.84 16.56 14.34 13.55 15.02 4.03 0.12 4.01 6.77 7.01 7.86 8.25 8.68 9.61 9.86 9.06 9.79 9.70 9.42 10.08 11.34 11.19 14.73 14.83 13.09 10.25
19.35 17.77 16.79 16.76 15.40 15.79 15.76 15.06 21.61 20.47 21.96 22.19 21.37 18.48 17.65 18.89 20.17 21.17 21.24 21.09 20.72 17.61 -4.12 -5.78 1.18 3.86 4.15 5.08 4.94 5.47 6.83 7.46 8.63 8.91 8.68 8.92 9.33 9.44 10.14 13.79 13.77 11.38 9.23
20.40 18.28 16.07 16.20 14.38 13.74 13.78 13.03 13.19 18.25 21.74 22.92 23.08 21.85 20.30 20.95 22.77 23.56 22.98 21.04 19.70 9.30 -10.99 -7.70 -2.58 0.88 1.08 2.63 3.27 3.59 3.68 5.59 7.63 7.12 7.86 7.87 8.59 9.74 11.02 11.91 11.61 10.95 8.97
20.24 21.04 17.12 16.00 14.34 14.07 13.73 13.64 14.59 13.92 15.24 17.25 22.08 20.89 22.22 23.50 23.60 22.72 21.29 16.34 7.46 -2.31 -11.39 -11.62 -9.41 -5.11 -1.66 -0.59 0.52 0.54 1.69 3.16 4.32 5.43 6.23 6.43 8.46 9.16 11.28 10.46 10.20 9.11 8.65
20.39 19.12 16.66 15.92 14.82 14.34 13.84 14.08 14.67 15.96 15.84 15.55 16.63 19.37 21.35 23.57 22.75 21.63 18.20 0.94 -2.43 -7.45 -10.67 -11.13 -9.02 -6.98 -4.17 -3.60 -3.25 -3.12 -1.58 -0.02 2.07 2.82 4.21 5.95 8.12 10.93 10.24 10.09 10.11 9.76 9.44
19.16 18.94 15.44 14.28 13.12 12.72 12.99 13.07 14.46 15.12 14.68 14.18 15.09 14.20 14.01 18.17 12.07 2.55 -3.00 -5.76 -8.93 -6.52 -7.84 -9.69 -10.42 -10.31 -10.04 -10.31 -7.74 -6.31 -4.00 -1.62 0.68 2.70 4.17 6.94 8.31 10.79 9.56 9.37 9.57 8.63 8.09
16.97 16.67 14.36 12.87 12.25 12.31 12.55 12.70 14.00 13.54 11.74 13.15 10.71 10.38 12.17 9.63 2.87 -0.69 -4.70 -8.27 -9.13 -7.21 -8.47 -10.62 -11.14 -11.90 -14.21 -16.23 -12.36 -8.20 -5.89 -2.55 -0.54 1.95 4.34 6.46 9.87 8.39 9.51 9.87 9.34 9.29 8.54
15.92 14.26 12.52 11.35 10.76 10.62 11.32 11.97 11.26 9.77 9.83 5.67 4.52 11.88 15.66 2.00 -0.33 -3.64 -6.16 -9.24 -8.19 -9.84 -11.90 -14.05 -13.69 -14.52 -14.85 -14.84 -12.34 -9.64 -7.70 -4.91 -0.73 2.48 4.18 6.19 9.65 8.65 8.48 8.52 8.52 8.56 8.36
13.31 11.89 10.67 10.36 10.49 10.55 10.05 9.13 8.16 7.31 5.92 4.15 6.57 9.66 1.24 -0.83 -3.35 -5.08 -6.55 -8.07 -10.03 -12.37 -15.33 -17.30 -16.08 -15.46 -14.90 -14.90 -12.52 -9.84 -8.53 -4.87 -0.34 2.62 4.39 8.53 8.48 7.46 7.43 7.03 7.71 7.36 7.18
10.64 9.59 8.20 7.99 7.58 7.44 7.03 6.34 5.72 5.24 4.43 4.31 2.94 0.48 -1.44 -3.47 -5.59 -6.32 -7.41 -10.17 -12.49 -14.90 -16.95 -17.27 -17.53 -16.56 -14.85 -14.49 -12.05 -9.40 -6.83 -3.80 0.60 4.44 8.35 8.59 7.41 6.95 6.70 6.60 6.67 7.54 6.97
7.66 6.60 5.49 5.39 5.39 4.74 4.04 3.06 2.41 2.72 3.29 1.79 -0.78 -2.76 -4.74 -5.71 -6.66 -7.27 -9.15 -11.26 -12.74 -14.51 -15.74 -17.92 -18.89 -17.41 -16.50 -15.39 -12.86 -10.89 -7.10 -0.36 4.69 8.50 10.42 7.83 6.61 5.70 6.14 5.83 6.13 6.40 6.90
5.19 4.99 4.61 4.54 3.34 2.78 1.76 0.73 0.30 0.41 -0.21 -1.78 -3.05 -4.37 -4.77 -5.26 -6.31 -8.08 -9.68 -11.70 -11.60 -12.98 -15.28 -17.92 -18.33 -16.20 -15.29 -12.28 -10.16 -4.53 4.19 8.06 9.11 15.45 5.10 8.07 6.26 5.81 5.84 4.96 5.38 5.56 6.00
MSLP
1005.37 1006.04 1006.70 1007.06 1007.86 1008.75 1009.63 1010.48 1011.24 1012.21 1012.91 1013.99 1014.83 1015.79 1016.73 1017.53 1018.42 1019.14 1019.65 1020.21 1020.60 1021.18 1021.36 1021.71 1022.19 1022.69 1023.07 1023.58 1023.81 1023.77 1023.76 1023.77 1022.37 1018.35 1019.35 1019.58 1019.49 1019.35 1018.95 1018.50 1018.42 1018.06 1017.39
1003.77 1005.04 1005.66 1006.48 1007.21 1007.97 1008.67 1009.38 1010.32 1011.23 1012.15 1012.85 1013.93 1014.94 1015.97 1016.95 1017.87 1018.58 1019.18 1019.55 1019.85 1020.51 1021.14 1021.45 1021.76 1022.30 1022.65 1023.09 1023.46 1023.30 1023.16 1022.90 1022.38 1019.87 1018.88 1019.10 1019.16 1019.12 1018.33 1017.78 1017.66 1017.47 1016.75
1003.17 1003.99 1005.01 1005.73 1006.39 1006.76 1007.39 1008.23 1009.32 1010.42 1011.46 1012.35 1013.25 1014.07 1014.96 1016.02 1016.89 1017.91 1018.57 1019.05 1019.30 1019.84 1020.41 1021.00 1021.33 1021.82 1022.43 1022.47 1022.68 1022.76 1022.64 1022.34 1021.91 1020.96 1018.06 1018.36 1018.65 1018.77 1017.49 1017.21 1016.56 1015.72 1015.16
1002.57 1002.84 1003.55 1004.31 1004.70 1005.42 1006.38 1007.31 1008.34 1009.44 1010.65 1011.64 1012.43 1013.07 1013.96 1014.93 1015.99 1016.79 1017.60 1018.50 1018.90 1019.07 1019.56 1020.01 1020.42 1020.99 1021.65 1021.88 1021.88 1022.01 1021.97 1021.75 1021.40 1020.80 1019.32 1017.83 1017.85 1017.60 1017.15 1016.09 1014.25 1014.13 1013.20
1001.14 1001.88 1002.10 1002.81 1003.93 1004.83 1005.65 1006.38 1007.45 1008.56 1009.44 1010.36 1011.64 1012.57 1013.27 1014.14 1015.06 1015.99 1016.83 1017.65 1018.45 1018.58 1019.13 1019.61 1020.20 1020.52 1020.84 1020.98 1021.03 1021.21 1021.22 1021.08 1020.57 1020.19 1019.00 1017.79 1016.85 1016.13 1015.78 1015.24 1013.97 1012.66 1011.65
1000.05 1000.20 1000.99 1002.10 1002.94 1003.83 1004.78 1005.55 1006.57 1007.77 1008.81 1009.80 1010.97 1011.89 1013.08 1013.72 1014.49 1015.42 1016.22 1017.23 1017.97 1018.10 1018.42 1018.96 1019.56 1020.13 1020.38 1020.23 1019.97 1020.00 1020.16 1019.95 1019.64 1019.20 1018.29 1017.42 1015.69 1015.91 1014.87 1014.05 1013.09 1012.15 1009.30
999.04 999.58 1000.22 1001.21 1002.07 1002.99 1004.22 1005.26 1006.17 1007.09 1008.23 1009.27 1010.46 1011.40 1012.49 1013.34 1014.10 1014.94 1015.75 1016.66 1017.17 1017.53 1017.92 1018.34 1018.69 1019.09 1019.60 1019.40 1019.36 1019.42 1019.41 1019.20 1018.75 1018.36 1017.38 1016.96 1015.31 1015.33 1014.57 1013.02 1012.30 1011.11 1008.57
998.26 999.10 999.97 1000.61 1001.42 1002.38 1003.47 1004.58 1005.72 1006.73 1007.44 1008.38 1009.83 1010.83 1011.80 1012.79 1013.18 1014.03 1014.97 1015.99 1016.60 1017.23 1017.57 1017.90 1018.13 1018.63 1018.67 1018.64 1018.60 1018.46 1018.27 1017.96 1017.64 1017.23 1016.61 1015.91 1015.20 1014.16 1013.84 1012.58 1010.87 1009.36 1007.30
998.12 998.68 999.30 1000.19 1001.11 1001.96 1002.91 1003.71 1004.73 1006.22 1007.10 1007.84 1008.61 1009.55 1010.65 1011.58 1012.30 1013.38 1014.33 1015.37 1016.23 1016.76 1017.04 1017.53 1017.58 1018.03 1017.98 1017.78 1017.57 1017.31 1017.13 1016.64 1016.35 1015.91 1015.45 1014.60 1013.90 1013.03 1012.59 1011.86 1010.37 1009.61 1006.85
998.33 999.20 999.97 1000.27 1001.20 1001.91 1002.33 1003.34 1004.39 1005.81 1006.85 1007.88 1009.05 1009.99 1010.83 1011.92 1012.31 1013.06 1013.65 1014.55 1015.23 1015.59 1016.39 1016.75 1017.39 1017.87 1017.71 1017.15 1016.60 1016.43 1016.21 1015.73 1015.56 1014.94 1014.28 1013.75 1013.40 1012.82 1011.89 1011.16 1010.03 1008.47 1006.83
998.84 999.71 1000.03 1000.57 1001.34 1002.30 1002.93 1003.72 1004.53 1005.69 1006.88 1007.74 1008.48 1009.76 1011.08 1012.07 1012.56 1012.70 1012.92 1013.60 1013.97 1014.35 1015.06 1015.60 1016.16 1016.34 1016.58 1016.35 1016.14 1016.05 1015.59 1015.02 1014.37 1014.30 1013.92 1013.04 1012.26 1011.37 1010.42 1009.64 1008.85 1007.89 1006.12
999.13 1000.03 1000.35 1000.60 1001.64 1002.47 1003.09 1003.98 1004.47 1005.61 1006.42 1007.30 1008.02 1009.33 1010.31 1011.43 1012.07 1012.09 1012.27 1012.72 1012.89 1013.80 1014.38 1014.73 1014.82 1014.88 1015.26 1015.48 1015.75 1015.62 1015.17 1014.34 1014.36 1014.07 1013.28 1012.11 1010.91 1009.82 1008.80 1007.96 1007.16 1006.09 1004.92
999.64 999.94 1000.32 1000.80 1001.73 1002.44 1003.03 1003.67 1004.69 1005.08 1005.72 1006.37 1007.35 1008.69 1009.67 1010.47 1011.18 1011.59 1011.77 1011.91 1012.10 1013.04 1013.31 1013.63 1014.24 1014.44 1014.03 1014.53 1015.11 1014.96 1014.67 1014.56 1013.98 1013.40 1012.36 1011.00 1009.86 1008.57 1007.47 1006.28 1005.16 1004.06 1002.65
1000.44 1000.13 1000.11 1000.01 1001.01 1001.91 1002.51 1003.05 1003.76 1004.32 1005.04 1005.88 1006.49 1007.35 1008.62 1009.93 1010.74 1011.42 1011.81 1011.74 1012.44 1013.36 1013.45 1014.11 1013.98 1014.64 1014.04 1013.74 1014.18 1014.51 1014.20 1013.88 1013.34 1012.51 1011.45 1009.97 1008.80 1007.67 1006.51 1005.28 1003.47 1002.21 1000.84
1000.10 1000.30 1000.24 1000.20 1000.80 1000.84 1001.02 1001.48 1001.83 1002.33 1002.71 1003.78 1005.06 1005.85 1006.97 1008.69 1009.82 1010.88 1012.43 1013.00 1013.13 1014.15 1014.64 1014.89 1015.21 1014.97 1014.74 1013.81 1013.96 1014.02 1013.69 1013.38 1012.78 1011.95 1010.79 1009.50 1008.21 1006.96 1005.56 1003.91 1002.48 1001.00 999.91
998.87 999.68 1000.09 999.65 1000.10 1000.20 1001.05 1001.82 1002.29 1002.02 1002.41 1003.81 1005.26 1005.36 1006.50 1007.92 1009.27 1010.02 1011.31 1012.92 1013.35 1014.41 1015.43 1015.72 1015.78 1016.01 1015.39 1014.53 1014.02 1013.95 1013.59 1013.11 1012.43 1011.61 1010.57 1009.34 1007.78 1006.40 1004.51 1002.50 1001.34 1000.13 998.56
997.77 997.74 999.01 999.76 998.57 999.44 1000.42 1000.39 1001.00 1002.77 1003.33 1003.12 1003.36 1004.05 1005.64 1007.10 1008.55 1009.17 1010.29 1011.54 1012.74 1014.67 1015.72 1015.74 1015.24 1015.89 1015.73 1015.05 1014.32 1014.10 1013.51 1012.78 1012.08 1011.21 1010.04 1008.56 1007.32 1005.72 1003.78 1001.50 1000.05 998.80 997.15
997.14 996.61 997.10 998.00 998.38 998.56 998.84 999.45 1000.24 1001.60 1001.63 1002.74 1003.44 1003.37 1004.53 1005.74 1006.95 1008.55 1010.31 1011.54 1013.02 1015.06 1016.28 1015.71 1015.64 1015.47 1015.41 1015.30 1014.65 1014.08 1013.32 1012.41 1011.65 1010.65 1009.37 1008.10 1006.59 1004.90 1002.47 1000.66 999.20 997.60 996.01
995.65 995.91 996.46 997.07 997.29 997.65 998.42 998.83 1000.13 1000.58 1001.74 1002.45 1002.78 1004.05 1004.59 1005.04 1005.84 1007.69 1009.86 1011.80 1013.31 1014.74 1015.36 1015.84 1015.19 1014.86 1015.13 1015.01 1014.65 1014.01 1013.17 1012.24 1011.27 1010.21 1008.85 1007.47 1005.71 1003.64 1001.56 1000.00 998.22 996.76 995.25
994.33 994.70 995.69 996.04 996.97 997.39 997.62 998.15 999.39 1000.45 1001.15 1002.33 1002.44 1003.14 1004.58 1005.68 1006.26 1007.84 1010.27 1011.62 1013.01 1014.07 1014.82 1015.28 1014.41 1014.63 1014.89 1014.77 1014.33 1013.65 1012.76 1011.58 1010.53 1009.45 1008.28 1006.66 1004.87 1002.69 1000.78 999.17 997.48 995.68 994.09
993.97 994.03 994.62 995.54 996.03 996.61 997.19 998.11 999.15 1000.14 1001.42 1001.76 1002.45 1003.53 1004.65 1005.82 1006.92 1008.48 1009.82 1011.79 1012.32 1013.57 1014.48 1013.86 1014.04 1014.39 1014.53 1014.12 1013.82 1013.31 1012.52 1010.74 1009.90 1008.99 1007.77 1006.07 1003.88 1001.76 1000.25 998.76 996.98 995.11 993.33
992.80 993.28 994.23 995.09 995.85 996.61 997.25 998.02 999.28 1000.32 1001.21 1001.97 1003.28 1004.41 1005.83 1006.96 1008.15 1009.16 1010.12 1011.24 1012.13 1013.14 1012.96 1012.91 1013.75 1014.10 1014.01 1013.67 1013.19 1012.91 1011.57 1010.20 1009.21 1008.23 1007.11 1005.43 1003.22 1001.29 999.76 998.12 996.34 994.51 992.67
992.55 993.28 994.15 994.98 995.66 996.40 997.33 998.26 999.27 1000.38 1001.39 1002.27 1003.29 1004.50 1006.18 1007.86 1008.73 1009.39 1009.91 1011.26 1011.83 1011.77 1011.90 1012.45 1013.38 1013.50 1013.34 1013.01 1012.69 1011.98 1010.98 1009.63 1008.52 1007.55 1006.33 1004.43 1002.63 1000.98 999.49 997.81 995.99 994.02 992.22
992.65 993.40 994.25 995.16 995.96 996.77 997.76 998.89 1000.02 1000.79 1001.68 1002.55 1003.68 1005.20 1006.72 1008.06 1008.71 1009.78 1010.80 1010.92 1010.80 1011.26 1011.71 1012.35 1012.61 1012.78 1012.63 1012.25 1011.45 1010.66 1009.84 1008.47 1007.58 1006.61 1005.40 1003.95 1002.50 1000.90 999.35 997.72 995.96 993.98 992.06
993.59 994.32 995.12 995.89 996.71 997.58 998.53 999.56 1000.40 1001.30 1002.13 1003.26 1004.63 1006.04 1007.42 1008.48 1009.59 1010.31 1010.35 1010.30 1010.74 1011.47 1011.86 1012.19 1012.01 1011.90 1011.99 1011.49 1010.61 1009.58 1008.57 1007.10 1006.12 1005.25 1004.06 1003.31 1002.30 1000.91 999.34 997.84 995.96 993.89 991.92
994.91 995.47 996.21 996.92 997.63 998.32 999.12 999.97 1000.94 1001.90 1002.87 1004.25 1005.54 1006.85 1007.98 1008.72 1009.08 1009.45 1009.73 1010.22 1010.91 1011.46 1011.71 1011.57 1011.32 1011.20 1010.98 1010.22 1009.27 1008.45 1007.32 1006.13 1005.11 1003.86 1003.26 1002.60 1001.93 1000.67 999.29 997.76 995.96 994.11 992.12
Wind_Speed
14 15 15 14 14 13 12 12 12 11 13 13 14 13 13 12 10 8 7 7 7 6 4 5 4 4 3 3 4 5 6 7 12 14 6 9 11 14 14 12 13 14 14
16 14 15 11 12 14 13 14 13 14 13 14 14 14 13 11 10 10 9 8 8 7 7 6 5 4 5 5 5 7 8 8 9 22 14 11 14 14 16 17 14 13 15
11 13 11 12 14 17 16 14 15 14 13 13 14 15 14 13 12 10 9 9 8 7 7 6 6 6 7 6 7 7 6 8 8 12 20 12 12 13 16 16 16 17 14
12 14 16 17 18 16 14 14 15 14 15 14 14 14 14 13 12 11 11 9 8 8 8 8 7 8 8 8 7 8 7 8 9 11 15 17 13 14 13 16 16 13 15
15 16 19 16 14 14 14 15 15 15 15 16 14 12 13 12 10 12 11 10 10 8 7 7 7 8 13 11 6 7 8 8 8 11 14 16 16 14 16 14 18 18 16
15 17 15 13 14 15 14 15 15 15 14 14 14 14 13 9 20 21 14 9 9 9 8 7 7 7 10 15 15 16 14 10 12 11 12 16 22 17 16 17 18 18 24
15 14 14 14 15 15 14 14 15 15 14 14 13 13 13 10 22 21 19 9 9 8 8 7 5 6 7 7 11 17 18 21 24 17 18 17 23 18 20 22 21 20 23
12 11 12 14 14 14 15 15 14 13 15 15 13 13 12 10 22 22 21 8 7 7 7 5 6 7 8 9 9 10 12 13 14 13 16 17 19 18 19 20 23 22 19
8 11 12 13 13 14 15 15 13 13 13 13 14 16 16 12 23 23 18 9 8 8 5 6 6 8 12 15 11 10 13 12 15 23 29 33 33 34 33 19 17 17 20
3 3 4 9 11 13 14 14 12 12 11 10 10 9 10 10 22 22 17 7 9 6 5 6 12 9 16 16 11 9 12 11 13 15 12 16 21 19 29 18 14 17 17
5 6 7 6 8 8 10 9 11 11 11 10 11 9 9 10 12 22 21 10 8 6 6 5 5 11 14 17 18 9 10 14 15 10 11 12 13 13 12 13 15 15 17
7 6 6 8 7 8 11 10 11 12 12 11 12 10 9 10 14 21 24 19 16 7 7 5 5 9 13 15 13 17 20 18 7 9 10 11 12 12 12 13 17 18 17
5 8 9 9 8 9 11 12 10 12 11 11 11 10 9 8 9 23 24 21 18 7 6 7 7 7 7 7 13 17 13 7 8 9 11 12 12 13 18 18 18 20 21
6 7 7 13 13 12 9 10 10 11 10 10 12 11 10 9 9 9 7 9 12 7 6 2 2 4 3 4 5 9 7 7 9 10 12 13 13 14 15 15 16 15 16
8 7 8 9 11 11 13 13 13 13 16 15 13 13 14 12 11 13 9 3 3 4 5 3 1 1 2 2 4 6 6 8 9 10 11 13 14 14 16 14 14 16 16
10 8 9 9 9 10 9 6 18 17 24 22 18 12 9 12 22 22 20 15 14 11 4 2 0 2 3 4 4 6 7 9 9 10 11 13 14 15 17 15 15 14 17
13 11 9 10 10 11 10 11 12 13 20 22 23 24 22 21 26 22 19 15 13 7 2 2 2 2 3 5 5 6 8 9 11 10 12 13 14 15 19 17 16 15 16
14 14 10 11 11 10 11 12 11 12 14 12 21 23 27 28 25 22 19 13 5 3 2 2 3 3 2 4 5 7 8 9 10 10 12 13 14 15 16 17 16 18 17
12 10 11 10 9 11 10 11 10 11 12 12 13 19 23 29 27 23 22 4 4 3 3 3 4 2 3 4 6 7 8 9 10 12 12 13 14 14 16 16 18 23 23
11 13 12 9 9 10 10 11 12 12 14 13 13 13 9 15 11 9 4 4 4 3 3 5 2 2 3 4 6 6 8 9 9 10 12 13 14 15 16 18 18 19 17
9 9 13 9 10 10 11 12 11 12 12 12 10 10 15 10 10 8 8 5 5 3 5 2 1 3 4 4 4 6 8 8 9 11 12 13 15 15 16 17 18 18 18
9 9 10 10 10 11 11 10 11 11 11 11 10 13 21 7 7 7 6 5 4 4 3 2 3 4 5 4 5 7 8 8 10 10 13 14 15 15 16 18 18 18 17
7 9 9 9 10 13 11 10 11 11 11 12 13 11 9 7 7 7 6 5 4 3 2 2 3 5 5 6 7 8 8 9 9 11 14 14 15 15 16 18 19 18 18
9 10 10 9 9 10 10 10 10 13 13 12 11 9 8 7 7 6 5 4 3 1 0 2 3 6 7 7 6 7 8 9 8 11 18 12 14 17 16 18 18 22 19
8 9 9 9 10 10 11 10 11 10 11 10 9 8 7 6 6 5 4 3 2 1 3 3 3 5 9 11 12 13 13 17 14 17 8 10 15 19 18 16 19 19 22
8 9 8 8 8 9 9 10 10 10 11 9 8 8 8 7 6 5 4 3 1 2 4 3 4 9 10 9 11 15 17 17 16 21 5 7 12 14 15 19 24 18 21
Wind_Direction
197 200 200 197 190 190 187 187 179 166 170 174 175 169 171 173 174 169 168 170 173 175 166 174 183 177 201 219 226 232 238 243 269 288 290 299 299 299 297 296 293 287 285
197 194 202 187 182 188 190 185 172 175 176 172 170 170 170 170 170 176 176 178 173 172 176 178 186 201 212 218 231 239 244 246 267 286 294 296 296 299 295 294 287 277 276
186 188 187 187 189 197 193 182 175 171 174 168 169 172 170 173 170 175 176 176 174 174 170 179 185 191 226 224 225 237 247 260 266 278 291 298 293 296 295 286 280 278 274
195 191 198 198 199 197 189 176 174 172 168 174 179 174 171 167 171 173 174 175 175 177 180 189 194 206 223 231 237 246 254 261 267 272 281 291 292 291 285 291 289 284 285
199 202 209 204 197 187 177 173 170 172 177 176 168 171 168 168 170 172 170 174 181 177 183 196 216 222 237 241 244 249 253 258 264 270 277 286 289 293 289 294 289 292 282
203 209 203 190 182 183 177 173 170 175 173 168 175 168 165 172 182 183 173 174 177 178 186 201 217 229 246 258 262 271 268 267 268 269 278 286 287 288 293 294 289 289 291
205 205 192 181 181 178 173 171 175 174 165 172 169 165 168 166 184 188 184 178 178 183 191 203 218 238 238 251 267 275 279 281 278 279 280 282 289 289 291 289 281 277 276
203 188 180 177 177 169 168 174 171 170 173 169 168 165 161 174 186 189 191 164 176 184 198 205 234 250 250 260 259 264 265 264 266 267 272 278 276 280 275 280 282 279 281
192 193 181 176 171 168 174 174 167 168 173 172 169 167 174 173 185 187 181 168 182 197 191 229 235 249 259 280 274 275 275 273 280 284 286 287 289 295 294 292 285 286 282
97 131 157 168 172 178 172 170 164 168 164 161 162 167 158 158 186 186 177 164 178 175 196 221 243 247 272 281 279 284 286 288 292 282 285 294 289 285 286 279 283 279 282
106 134 137 145 157 163 153 158 152 157 150 156 148 145 149 163 197 187 187 180 177 173 187 189 209 255 277 284 300 292 285 289 300 308 294 285 282 282 280 272 267 270 280
134 122 136 129 140 150 152 154 152 155 155 157 154 154 159 168 192 197 198 183 184 176 183 189 199 255 288 299 305 298 300 312 311 293 287 286 288 288 288 286 280 275 270
141 164 151 142 149 157 159 160 163 167 170 168 168 169 171 171 185 201 195 194 190 164 156 190 233 282 283 311 300 306 313 298 290 287 288 289 290 292 295 292 280 281 277
222 196 177 165 168 172 170 171 173 176 178 179 178 173 164 170 180 193 198 184 187 189 175 116 192 265 274 284 301 295 293 291 290 288 287 292 297 297 295 286 295 294 287
223 211 196 189 190 184 186 185 187 194 186 178 181 170 163 175 183 177 177 177 134 191 101 64 28 279 299 291 280 283 294 291 290 291 295 298 296 295 290 292 295 296 289
211 204 208 191 189 183 184 190 212 193 193 194 188 166 154 163 169 169 174 185 185 148 48 88 7 297 292 311 297 302 296 292 291 297 294 293 294 297 293 297 300 294 293
223 202 200 211 183 178 187 178 169 194 199 189 178 164 159 159 167 168 166 162 169 124 110 198 160 243 293 301 301 290 294 294 296 291 291 295 294 294 295 305 303 299 295
235 221 197 196 193 186 184 181 173 177 174 177 173 157 154 161 158 162 155 147 131 69 200 173 202 229 266 283 293 289 294 298 297 297 296 294 291 296 305 306 305 303 299
231 214 199 200 191 180 176 170 176 175 170 160 149 156 160 158 159 155 152 141 150 163 185 218 218 218 259 273 279 283 285 288 294 296 292 289 299 303 309 307 305 306 301
238 220 194 183 176 173 173 168 172 173 165 165 161 152 151 161 148 129 123 125 147 149 180 223 218 235 247 247 274 277 284 289 299 298 293 294 295 314 313 311 310 308 305
224 204 183 177 177 175 171 173 171 165 166 163 141 150 154 151 140 142 139 161 153 158 210 196 253 262 254 243 258 275 270 288 296 293 292 298 304 317 315 310 309 306 306
216 183 175 175 165 167 166 162 158 156 159 135 135 160 148 125 137 142 143 151 159 193 194 140 259 254 259 257 271 269 278 290 291 293 296 295 316 318 317 315 312 312 311
178 164 160 159 160 158 157 153 152 154 148 140 145 156 132 150 152 150 145 163 181 181 153 139 242 272 256 256 248 251 266 277 287 295 295 300 320 320 320 316 317 315 319
148 148 144 143 142 143 144 144 146 146 143 143 136 135 145 153 140 148 166 161 139 184 163 225 224 259 284 278 274 265 258 267 280 288 298 305 318 319 321 319 318 320 317
117 122 127 136 139 139 135 135 134 133 134 129 126 124 128 128 143 156 151 130 112 278 277 257 236 263 268 276 278 281 279 292 301 301 290 312 316 316 322 321 321 324 323
104 112 119 126 129 129 130 127 126 130 128 126 125 135 147 153 147 144 129 117 153 268 278 264 274 282 284 285 285 289 299 306 309 316 287 321 321 321 326 326 328 328 329